SCP
0 0 0 0 0 0 0 0 0 0 0 0 0 0 0 0 0 0 0 0 0 0 0 0 0 0 0 0 0 0 0 0 0 0 0 0 0 0
0 0 0 0 0 0 0 0 0 0 0 0 0 0 0 0 0 0 0 0 0 0 0 0 0 0 0 0 0 0 0 0 0 0 0 0 0 0
0 0 0 0 0 0 0 0 0 0 0 0 0 0 0 0 0 0 0 0 0 0 0 0 0 0 0 0 0 0 0 0 0 0 0 0 0 0
0 0 0 0 0 0 0 0 0 0 0 0 0 0 0 0 0 0 0 0 0 0 0 0 0 0 0 0 0 0 0 0 0 0 0 0 0 0
0 0 0 0 0 0 0 0 0 0 0 0 0 0 0 0 0 0 0 0 0 0 0 0 0 0 0 0 0 0 0 0 0 0 0 0 0 0
0 -0 0 0 0 0 0 0 0 0 0 0 0 0 0 0 0 -0 -0 0 0 0 0 0 0 0 0 0 0 0 0 0 0 0 0 0 0 0
0 0 -0 0 0 0 0 0 0 0 0 0 0 0 0 0 0 0 0 0 0 0 0 0 0 0 0 0 0 0 0 0 0 0 0 0 0 0
0 0 0 0 0 0 0 0 0 0 0 0 0 0 0 0 0 0 0 0 0 0 0 0 0 0 0 0 0 0 0 0 -0 0 0 0 0 0
0 0 0 0 0 0 0 0 0 0 0 0 0 0 0 0 0 0 0 0 0 0 0 0 0 -0 -0 0 -0 0 0 0 0 0 0 0 0 0
0 0 0 0 0 0 0 0 0 0 0 0 0 0 0 0 0 0 0 0 0 0 0 0 -0 0 -0 0 -0 -0 -0 -0 -0 -0 -0 -0 -0 -0
0 0 0 0 0 0 0 0 0 0 0 0 0 0 0 0 0 0 0 0 0 0 0 0 0 0 0 -0 -0 -0 -0 -0 -0 -0 -0 -0 0 -0
0 0 0 0 0 0 0 0 0 0 0 -0 -0 0 0 0 0 0 0 0 0 0 0 0 0 0 0 0 0 0 0 -0 -0 -0 -0 -0 0 0
0 0 0 0 0 0 0 0 0 0 0 -0 -0 -0 0 0 0 0 0 0 0 0 0 0 0 0 0 0 0 0 0 -0 0 0 -0 -0 0 0
0 0 0 0 0 0 0 0 0 0 0 0 0 0 0 0 0 0 0 0 0 0 0 0 0 0 0 0 0 0 0 0 0 0 0 0 0 -0
0 0 0 0 0 0 0 0 0 0 0 0 0 0 -0 0 0 0 0 0 0 0 0 0 0 0 0 0 0 -0 0 0 0 0 0 0 0 0
0 0 0 0 0 0 0 0 0 0 0 0 0 0 0 0 0 0 0 0 0 0 0 0 0 0 0 0 0 0 0 0 0 0 0 0 0 0
0 0 0 0 0 0 0 0 0 0 0 0 0 0 0 0 0 0 0 0 0 0 0 0 0 0 0 0 0 0 0 0 0 0 0 0 0 0
0 0 0 0 0 0 0 0 0 0 0 0 0 0 0 0 0 0 0 0 0 0 0 0 0 0 0 0 0 0 0 0 0 0 0 0 -0 0
-0 -0 0 0 0 0 0 0 0 0 0 0 0 0 0 0 0 0 0 0 0 0 0 0 0 0 0 0 0 -0 0 0 0 0 0 0 -0 0
-0 0 -0 0 0 0 0 0 0 0 0 0 0 0 0 0 0 0 0 0 0 0 0 0 0 0 0 0 0 0 0 0 0 0 -0 -0 -0 0
0 -0 0 0 0 0 0 0 0 0 0 0 0 0 0 0 0 0 0 0 0 0 0 0 0 0 0 0 0 0 0 0 0 -0 -0 -0 -0 0
0 0 0 0 0 0 0 0 0 0 0 0 0 0 0 0 0 0 0 0 0 0 0 0 0 0 0 0 0 0 0 0 0 0 -0 0 0 0
0 -0 0 0 0 0 0 0 0 0 0 0 0 0 0 0 0 0 0 0 0 0 0 0 0 0 0 0 0 0 0 0 0 0 0 -0 -0 -0
Wind_Speed_500mb
50 58 39 21 13 12 22 17 20 11 16 20 24 29 33 28 14 14 13 14 13 16 18 21 15 11 12 11 12 11 15 21 29 36 42 48 55 58
49 55 56 38 19 17 17 15 21 21 9 18 20 18 23 21 17 16 9 6 7 9 9 9 9 9 7 5 6 9 16 22 28 34 41 48 53 49
48 49 52 52 33 14 11 15 18 17 23 18 18 17 20 21 19 16 11 5 8 10 8 8 9 8 6 0 4 9 15 23 27 34 41 47 45 48
46 47 48 54 49 27 15 16 23 28 34 32 29 23 23 26 26 25 19 14 11 11 8 10 11 10 7 3 3 8 13 22 29 34 41 39 40 42
52 40 44 49 54 47 26 13 9 10 13 12 14 14 18 20 22 23 20 17 14 13 8 8 12 11 7 3 2 7 15 22 27 34 36 34 37 38
49 45 34 42 47 53 36 24 8 3 8 8 8 8 10 11 12 11 10 10 10 10 9 9 13 10 6 2 4 11 18 21 27 32 30 32 33 41
43 47 42 29 33 46 41 28 18 10 3 7 7 6 7 8 5 6 4 2 3 3 3 7 10 10 5 3 6 11 16 22 32 29 27 29 33 45
40 43 47 44 30 32 42 33 24 19 12 16 10 6 7 5 3 3 2 1 5 6 7 7 8 9 5 3 4 11 18 25 29 25 27 26 36 43
32 37 42 47 43 29 33 34 26 23 21 16 13 10 8 4 4 1 4 4 5 5 7 8 9 10 9 6 7 11 20 27 27 24 24 29 36 39
23 29 34 42 45 42 27 32 33 26 25 21 17 16 12 9 7 5 3 4 4 10 14 12 12 14 13 9 8 13 20 25 20 22 24 29 32 40
17 21 28 33 39 43 32 23 27 29 24 23 20 19 19 17 12 6 7 9 12 13 13 17 19 22 18 12 13 14 22 20 20 24 27 27 30 34
17 17 20 25 32 38 36 31 25 26 23 22 21 22 22 21 16 10 9 10 13 12 14 18 28 23 15 17 18 19 22 22 25 29 29 26 28 32
23 21 18 19 26 31 34 27 27 23 20 19 21 24 25 23 19 15 13 13 16 14 14 17 21 17 20 22 18 20 23 30 32 34 28 28 38 40
24 25 22 16 21 25 27 21 19 19 20 20 20 21 25 26 24 19 16 17 17 14 13 13 18 21 27 25 19 25 31 35 34 33 32 31 38 43
22 23 22 18 12 15 22 22 20 20 20 20 20 20 24 27 25 19 16 16 19 21 19 19 21 23 19 18 26 26 33 36 33 32 27 29 35 37
27 21 19 13 8 11 14 19 18 20 21 21 18 19 20 23 24 20 12 13 18 22 23 23 25 22 21 25 23 26 24 24 29 28 26 28 32 40
30 17 13 7 1 3 9 16 19 15 15 19 20 20 21 22 23 20 13 11 17 22 25 25 24 22 24 25 26 35 33 32 29 23 21 25 34 38
14 11 7 3 2 6 5 10 17 19 17 20 22 21 20 21 22 20 17 11 15 18 26 28 27 28 28 29 28 30 29 31 29 22 20 23 33 38
18 6 6 4 3 3 5 4 11 15 18 18 19 21 18 17 19 22 21 13 12 14 19 21 19 13 17 28 30 27 28 30 30 25 20 24 34 34
20 13 5 5 3 2 3 2 4 11 15 18 20 18 19 18 18 21 19 15 10 10 14 14 10 14 19 22 29 31 30 31 28 23 27 31 29 28
28 18 10 3 2 3 4 5 3 3 8 11 20 18 17 17 16 16 17 14 10 7 11 13 12 16 18 24 33 35 29 32 28 27 26 23 22 28
41 25 16 7 4 4 6 6 7 5 2 5 12 19 19 16 17 16 14 13 12 7 11 14 13 19 18 20 30 36 33 32 32 28 20 15 13 26
46 38 24 15 5 7 10 10 7 9 6 2 4 12 19 15 15 15 13 12 10 7 12 15 17 19 17 21 28 33 32 34 30 32 34 31 31 38
Wind_Direction_500mb
4 4 4 334 301 312 264 261 273 269 250 238 234 233 231 238 243 254 253 258 268 266 276 269 267 273 277 299 328 338 342 339 338 343 348 346 345 348
6 2 9 6 314 285 284 273 250 243 239 231 227 224 214 211 218 247 246 260 304 301 287 256 224 232 262 313 335 347 352 336 345 350 350 350 353 356
4 8 5 12 5 309 290 261 250 241 248 240 232 220 221 219 214 218 220 269 298 323 311 232 203 205 219 113 5 353 350 343 352 356 355 357 0 1
13 7 10 8 17 2 319 271 266 267 260 257 259 245 236 239 236 237 240 252 273 291 292 212 202 203 200 171 19 355 355 354 0 1 1 8 9 11
11 14 13 10 9 10 4 343 296 254 249 239 221 225 228 226 228 232 237 245 251 261 258 212 197 203 198 196 34 353 1 4 5 6 11 18 18 21
16 15 19 16 9 7 7 11 344 302 272 208 197 195 211 211 211 212 226 244 249 247 260 220 200 207 192 215 22 2 1 6 13 15 28 27 28 26
18 19 16 16 18 14 9 20 30 30 358 120 120 148 163 152 165 167 158 259 234 243 251 191 193 194 191 52 19 13 8 11 19 25 42 40 37 31
9 19 16 15 20 22 15 22 32 36 50 72 85 106 115 122 143 117 103 41 101 95 97 146 165 200 182 131 61 18 16 23 27 43 51 50 42 28
1 9 16 17 17 28 19 16 28 31 37 55 75 78 75 63 45 48 45 36 85 127 132 128 126 169 159 105 50 31 31 25 37 50 57 58 43 26
354 2 9 14 14 15 21 19 20 27 33 41 50 51 41 27 22 38 44 34 52 114 132 134 117 136 128 107 65 45 35 33 52 62 68 63 38 26
343 351 0 11 13 12 18 23 13 19 27 26 31 36 29 28 28 44 122 99 99 106 126 135 133 129 119 95 76 52 40 44 69 73 75 64 46 31
338 345 359 7 15 12 16 16 18 11 18 22 27 31 29 33 41 68 99 109 124 100 133 133 139 127 103 87 64 56 41 59 70 79 88 64 44 43
333 332 358 5 14 16 17 23 12 11 13 20 23 30 30 40 45 66 78 80 74 92 136 141 153 130 120 120 76 70 70 72 75 92 85 65 53 57
324 322 345 5 11 13 19 23 11 20 20 19 22 30 35 41 42 54 67 81 71 72 114 128 142 138 130 128 101 82 88 82 88 94 72 57 61 57
316 308 324 346 8 8 20 24 24 27 20 20 19 25 30 36 44 37 59 68 67 83 93 105 116 122 121 128 138 100 99 95 103 93 75 55 66 63
294 296 306 329 355 10 22 35 36 29 24 25 22 22 26 31 38 43 63 78 77 95 108 107 106 105 111 104 106 138 115 113 104 93 76 68 58 54
301 283 279 285 258 70 38 46 45 35 28 25 25 24 26 29 30 40 52 82 98 105 112 114 116 109 103 102 111 112 119 121 108 95 83 75 64 57
330 262 258 268 258 68 56 46 53 48 42 33 29 22 22 26 27 35 45 71 103 120 123 125 123 113 108 107 112 117 124 115 110 102 89 83 74 60
13 341 259 243 201 75 103 22 28 44 46 35 26 21 19 19 25 33 43 54 100 121 143 142 132 129 123 120 123 125 122 118 116 112 97 78 71 62
14 21 340 278 264 133 123 152 29 17 32 32 29 23 18 18 23 34 37 43 78 113 137 157 155 128 126 127 137 133 130 129 122 103 88 82 76 68
20 22 22 331 289 195 183 193 192 4 29 33 25 22 27 23 19 27 32 32 44 80 118 145 143 127 127 125 139 140 136 137 122 104 100 90 78 86
23 22 24 14 268 236 214 212 200 217 301 13 27 27 24 26 17 19 25 32 35 73 119 133 136 138 132 131 151 151 144 138 125 117 102 76 80 101
25 24 21 15 344 243 229 233 225 209 215 232 345 13 25 24 27 16 13 26 30 81 127 147 149 140 139 133 154 153 146 141 132 120 103 83 84 88
Wind_Speed_850mb
50 58 39 21 13 12 22 17 20 11 16 20 24 29 33 28 14 14 13 14 13 16 18 21 15 11 12 11 12 11 15 21 29 36 42 48 55 58
49 55 56 38 19 17 17 15 21 21 9 18 20 18 23 21 17 16 9 6 7 9 9 9 9 9 7 5 6 9 16 22 28 34 41 48 53 49
48 49 52 52 33 14 11 15 18 17 23 18 18 17 20 21 19 16 11 5 8 10 8 8 9 8 6 0 4 9 15 23 27 34 41 47 45 48
46 47 48 54 49 27 15 16 23 28 34 32 29 23 23 26 26 25 19 14 11 11 8 10 11 10 7 3 3 8 13 22 29 34 41 39 40 42
52 40 44 49 54 47 26 13 9 10 13 12 14 14 18 20 22 23 20 17 14 13 8 8 12 11 7 3 2 7 15 22 27 34 36 34 37 38
49 45 34 42 47 53 36 24 8 3 8 8 8 8 10 11 12 11 10 10 10 10 9 9 13 10 6 2 4 11 18 21 27 32 30 32 33 41
43 47 42 29 33 46 41 28 18 10 3 7 7 6 7 8 5 6 4 2 3 3 3 7 10 10 5 3 6 11 16 22 32 29 27 29 33 45
40 43 47 44 30 32 42 33 24 19 12 16 10 6 7 5 3 3 2 1 5 6 7 7 8 9 5 3 4 11 18 25 29 25 27 26 36 43
32 37 42 47 43 29 33 34 26 23 21 16 13 10 8 4 4 1 4 4 5 5 7 8 9 10 9 6 7 11 20 27 27 24 24 29 36 39
23 29 34 42 45 42 27 32 33 26 25 21 17 16 12 9 7 5 3 4 4 10 14 12 12 14 13 9 8 13 20 25 20 22 24 29 32 40
17 21 28 33 39 43 32 23 27 29 24 23 20 19 19 17 12 6 7 9 12 13 13 17 19 22 18 12 13 14 22 20 20 24 27 27 30 34
17 17 20 25 32 38 36 31 25 26 23 22 21 22 22 21 16 10 9 10 13 12 14 18 28 23 15 17 18 19 22 22 25 29 29 26 28 32
23 21 18 19 26 31 34 27 27 23 20 19 21 24 25 23 19 15 13 13 16 14 14 17 21 17 20 22 18 20 23 30 32 34 28 28 38 40
24 25 22 16 21 25 27 21 19 19 20 20 20 21 25 26 24 19 16 17 17 14 13 13 18 21 27 25 19 25 31 35 34 33 32 31 38 43
22 23 22 18 12 15 22 22 20 20 20 20 20 20 24 27 25 19 16 16 19 21 19 19 21 23 19 18 26 26 33 36 33 32 27 29 35 37
27 21 19 13 8 11 14 19 18 20 21 21 18 19 20 23 24 20 12 13 18 22 23 23 25 22 21 25 23 26 24 24 29 28 26 28 32 40
30 17 13 7 1 3 9 16 19 15 15 19 20 20 21 22 23 20 13 11 17 22 25 25 24 22 24 25 26 35 33 32 29 23 21 25 34 38
14 11 7 3 2 6 5 10 17 19 17 20 22 21 20 21 22 20 17 11 15 18 26 28 27 28 28 29 28 30 29 31 29 22 20 23 33 38
18 6 6 4 3 3 5 4 11 15 18 18 19 21 18 17 19 22 21 13 12 14 19 21 19 13 17 28 30 27 28 30 30 25 20 24 34 34
20 13 5 5 3 2 3 2 4 11 15 18 20 18 19 18 18 21 19 15 10 10 14 14 10 14 19 22 29 31 30 31 28 23 27 31 29 28
28 18 10 3 2 3 4 5 3 3 8 11 20 18 17 17 16 16 17 14 10 7 11 13 12 16 18 24 33 35 29 32 28 27 26 23 22 28
41 25 16 7 4 4 6 6 7 5 2 5 12 19 19 16 17 16 14 13 12 7 11 14 13 19 18 20 30 36 33 32 32 28 20 15 13 26
46 38 24 15 5 7 10 10 7 9 6 2 4 12 19 15 15 15 13 12 10 7 12 15 17 19 17 21 28 33 32 34 30 32 34 31 31 38
Wind_Direction_850mb
4 4 4 334 301 312 264 261 273 269 250 238 234 233 231 238 243 254 253 258 268 266 276 269 267 273 277 299 328 338 342 339 338 343 348 346 345 348
6 2 9 6 314 285 284 273 250 243 239 231 227 224 214 211 218 247 246 260 304 301 287 256 224 232 262 313 335 347 352 336 345 350 350 350 353 356
4 8 5 12 5 309 290 261 250 241 248 240 232 220 221 219 214 218 220 269 298 323 311 232 203 205 219 113 5 353 350 343 352 356 355 357 0 1
13 7 10 8 17 2 319 271 266 267 260 257 259 245 236 239 236 237 240 252 273 291 292 212 202 203 200 171 19 355 355 354 0 1 1 8 9 11
11 14 13 10 9 10 4 343 296 254 249 239 221 225 228 226 228 232 237 245 251 261 258 212 197 203 198 196 34 353 1 4 5 6 11 18 18 21
16 15 19 16 9 7 7 11 344 302 272 208 197 195 211 211 211 212 226 244 249 247 260 220 200 207 192 215 22 2 1 6 13 15 28 27 28 26
18 19 16 16 18 14 9 20 30 30 358 120 120 148 163 152 165 167 158 259 234 243 251 191 193 194 191 52 19 13 8 11 19 25 42 40 37 31
9 19 16 15 20 22 15 22 32 36 50 72 85 106 115 122 143 117 103 41 101 95 97 146 165 200 182 131 61 18 16 23 27 43 51 50 42 28
1 9 16 17 17 28 19 16 28 31 37 55 75 78 75 63 45 48 45 36 85 127 132 128 126 169 159 105 50 31 31 25 37 50 57 58 43 26
354 2 9 14 14 15 21 19 20 27 33 41 50 51 41 27 22 38 44 34 52 114 132 134 117 136 128 107 65 45 35 33 52 62 68 63 38 26
343 351 0 11 13 12 18 23 13 19 27 26 31 36 29 28 28 44 122 99 99 106 126 135 133 129 119 95 76 52 40 44 69 73 75 64 46 31
338 345 359 7 15 12 16 16 18 11 18 22 27 31 29 33 41 68 99 109 124 100 133 133 139 127 103 87 64 56 41 59 70 79 88 64 44 43
333 332 358 5 14 16 17 23 12 11 13 20 23 30 30 40 45 66 78 80 74 92 136 141 153 130 120 120 76 70 70 72 75 92 85 65 53 57
324 322 345 5 11 13 19 23 11 20 20 19 22 30 35 41 42 54 67 81 71 72 114 128 142 138 130 128 101 82 88 82 88 94 72 57 61 57
316 308 324 346 8 8 20 24 24 27 20 20 19 25 30 36 44 37 59 68 67 83 93 105 116 122 121 128 138 100 99 95 103 93 75 55 66 63
294 296 306 329 355 10 22 35 36 29 24 25 22 22 26 31 38 43 63 78 77 95 108 107 106 105 111 104 106 138 115 113 104 93 76 68 58 54
301 283 279 285 258 70 38 46 45 35 28 25 25 24 26 29 30 40 52 82 98 105 112 114 116 109 103 102 111 112 119 121 108 95 83 75 64 57
330 262 258 268 258 68 56 46 53 48 42 33 29 22 22 26 27 35 45 71 103 120 123 125 123 113 108 107 112 117 124 115 110 102 89 83 74 60
13 341 259 243 201 75 103 22 28 44 46 35 26 21 19 19 25 33 43 54 100 121 143 142 132 129 123 120 123 125 122 118 116 112 97 78 71 62
14 21 340 278 264 133 123 152 29 17 32 32 29 23 18 18 23 34 37 43 78 113 137 157 155 128 126 127 137 133 130 129 122 103 88 82 76 68
20 22 22 331 289 195 183 193 192 4 29 33 25 22 27 23 19 27 32 32 44 80 118 145 143 127 127 125 139 140 136 137 122 104 100 90 78 86
23 22 24 14 268 236 214 212 200 217 301 13 27 27 24 26 17 19 25 32 35 73 119 133 136 138 132 131 151 151 144 138 125 117 102 76 80 101
25 24 21 15 344 243 229 233 225 209 215 232 345 13 25 24 27 16 13 26 30 81 127 147 149 140 139 133 154 153 146 141 132 120 103 83 84 88